Change the Weather History Date:

Thursday, February 21, 2013

  Actual Average (KMKC) Record (KMKC)
Temperature  
Mean Temperature 24 °F -  
Max Temperature 26 °F 44 °F 66 °F (2000)
Min Temperature 23 °F 28 °F 15 °F (2008)
Degree Days  
Heating Degree Days 40    
Moisture  
Dew Point 20 °F    
Average Humidity 82    
Maximum Humidity 93    
Minimum Humidity 68    
Precipitation  
Precipitation 0.00 in - - ()
Sea Level Pressure  
Sea Level Pressure 29.96 in    
Wind  
Wind Speed 11 mph (East)    
Max Wind Speed 25 mph    
Max Gust Speed 34 mph    
Visibility 5 miles    
Events Snow    
Averages and records for this station are not official NWS values.
T = Trace of Precipitation, MM = Missing Value Source: NWS Daily Summary

Daily Weather History Graph

Daily Weather History Graph

Search for Another Location

Airport or City:

Trip Planner

Search our weather history database for the weather conditions in past years. The results will help you decide how hot, cold, wet, or windy it might be!

Date:

Astronomy

Feb. 21, 2013 Rise Set
Actual Time 7:00 AM CST 6:01 PM CST
Civil Twilight 6:33 AM CST 6:28 PM CST
Nautical Twilight 6:02 AM CST 6:59 PM CST
Astronomical Twilight 5:31 AM CST 7:30 PM CST
Moon 2:17 PM CST (2/21) 4:05 AM CST (2/21)
Length of Visible Light 11h 54m
Length of Day
11h 00m
Waxing Gibbous, 84% of the Moon is Illuminated
Feb 21
Waxing Gibbous
Feb 25
Full
Mar 4
Last Quarter
Mar 11
New
Mar 19
First Quarter

Hourly Weather History & Observations

Time (CST) Temp. Windchill Dew Point Humidity Pressure Visibility Wind Dir Wind Speed Gust Speed Precip Events Conditions
12:15 AM 23.0 °F 13.1 °F 14.0 °F 68% 30.23 in 10.0 mi ENE 9.2 mph - N/A   Clear
12:35 AM 23.0 °F 12.4 °F 14.0 °F 68% 30.23 in 10.0 mi ENE 10.4 mph - N/A   Clear
12:55 AM 23.0 °F 13.9 °F 14.0 °F 68% 30.22 in 10.0 mi ENE 8.1 mph - N/A   Clear
1:15 AM 23.0 °F 13.9 °F 14.0 °F 68% 30.22 in 10.0 mi ENE 8.1 mph - N/A   Scattered Clouds
1:35 AM 23.0 °F 12.4 °F 14.0 °F 68% 30.22 in 10.0 mi East 10.4 mph - N/A   Mostly Cloudy
1:55 AM 23.0 °F 11.1 °F 14.0 °F 68% 30.21 in 10.0 mi East 12.7 mph 16.1 mph N/A   Overcast
2:15 AM 23.0 °F 13.9 °F 14.0 °F 68% 30.20 in 10.0 mi East 8.1 mph - N/A   Overcast
2:35 AM 23.0 °F 10.6 °F 14.0 °F 68% 30.17 in 10.0 mi ENE 13.8 mph 17.3 mph N/A   Overcast
2:55 AM 23.0 °F 9.6 °F 14.0 °F 68% 30.13 in 10.0 mi ENE 16.1 mph 20.7 mph N/A   Mostly Cloudy
3:15 AM 23.0 °F 13.9 °F 14.0 °F 68% 30.15 in 10.0 mi East 8.1 mph - N/A   Mostly Cloudy
3:35 AM 23.0 °F 13.1 °F 14.0 °F 68% 30.16 in 10.0 mi East 9.2 mph 16.1 mph N/A   Overcast
3:55 AM 23.0 °F 10.6 °F 14.0 °F 68% 30.14 in 10.0 mi ENE 13.8 mph 17.3 mph N/A   Overcast
4:15 AM 23.0 °F 10.6 °F 14.0 °F 68% 30.13 in 10.0 mi East 13.8 mph 21.9 mph N/A   Overcast
4:35 AM 23.0 °F 11.1 °F 14.0 °F 68% 30.10 in 10.0 mi East 12.7 mph 17.3 mph N/A   Overcast
4:55 AM 23.0 °F 12.4 °F 14.0 °F 68% 30.12 in 10.0 mi East 10.4 mph 17.3 mph N/A   Unknown
5:15 AM 23.0 °F 12.4 °F 15.8 °F 74% 30.12 in 10.0 mi East 10.4 mph - N/A   Overcast
5:35 AM 23.0 °F 10.1 °F 15.8 °F 74% 30.07 in 10.0 mi ENE 15.0 mph 19.6 mph N/A   Overcast
5:55 AM 23.0 °F 10.6 °F 15.8 °F 74% 30.07 in 10.0 mi East 13.8 mph 17.3 mph N/A   Overcast
6:15 AM 23.0 °F 11.7 °F 15.8 °F 74% 30.10 in 10.0 mi East 11.5 mph 18.4 mph N/A   Unknown
6:35 AM 23.0 °F 11.1 °F 15.8 °F 74% 30.07 in 10.0 mi East 12.7 mph 23.0 mph N/A   Unknown
6:55 AM 23.0 °F 11.7 °F 15.8 °F 74% 30.05 in 10.0 mi East 11.5 mph 20.7 mph N/A   Overcast
7:15 AM 24.8 °F 13.4 °F 15.8 °F 69% 30.06 in 10.0 mi East 12.7 mph 17.3 mph N/A   Unknown
7:35 AM 24.8 °F 13.4 °F 15.8 °F 69% 30.06 in 10.0 mi East 12.7 mph 18.4 mph N/A   Overcast
7:55 AM 23.0 °F 11.1 °F 17.6 °F 80% 30.08 in 1.0 mi East 12.7 mph 16.1 mph N/A Snow Light Snow
8:15 AM 23.0 °F 12.4 °F 21.2 °F 93% 30.08 in 0.2 mi East 10.4 mph - N/A Snow Snow
8:35 AM 23.0 °F 11.7 °F 21.2 °F 93% 30.06 in 0.2 mi ENE 11.5 mph - N/A Snow Heavy Snow
8:55 AM 23.0 °F 12.4 °F 21.2 °F 93% 30.08 in 0.2 mi East 10.4 mph - N/A Snow Heavy Snow
9:15 AM 23.0 °F 10.6 °F 21.2 °F 93% 30.08 in 0.2 mi East 13.8 mph 18.4 mph N/A Snow Heavy Snow
9:35 AM 23.0 °F 10.6 °F 21.2 °F 93% 30.05 in 0.2 mi ENE 13.8 mph 18.4 mph N/A Snow Heavy Snow
9:55 AM 23.0 °F 9.6 °F 21.2 °F 93% 30.03 in 0.2 mi ENE 16.1 mph 25.3 mph N/A Snow Heavy Snow
10:15 AM 23.0 °F 8.3 °F 21.2 °F 93% 29.99 in 0.2 mi ENE 19.6 mph 25.3 mph N/A Snow Heavy Snow
10:35 AM 23.0 °F 9.6 °F 21.2 °F 93% 29.98 in 0.2 mi East 16.1 mph 27.6 mph N/A Snow Snow
10:55 AM 23.0 °F 8.3 °F 21.2 °F 93% 29.95 in 0.8 mi ENE 19.6 mph 27.6 mph N/A Snow Light Snow
11:15 AM 23.0 °F 7.2 °F 21.2 °F 93% 29.93 in 1.5 mi East 23.0 mph 31.1 mph N/A Snow Light Snow
11:35 AM 23.0 °F 7.6 °F 21.2 °F 93% 29.92 in 0.2 mi East 21.9 mph 29.9 mph N/A Snow Snow
12:15 PM 24.8 °F 11.9 °F 21.2 °F 86% 29.92 in 0.2 mi East 16.1 mph 27.6 mph N/A Snow Snow
12:35 PM 24.8 °F 11.1 °F 21.2 °F 86% 29.90 in 0.8 mi East 18.4 mph 32.2 mph N/A Snow Light Snow
12:55 PM 26.6 °F 13.1 °F 21.2 °F 80% 29.88 in 1.2 mi East 19.6 mph 27.6 mph N/A Snow Light Snow
1:15 PM 26.6 °F 13.1 °F 21.2 °F 80% 29.87 in 1.5 mi East 19.6 mph 31.1 mph N/A Snow Light Snow
1:35 PM 26.6 °F 11.4 °F 21.2 °F 80% 29.85 in 1.8 mi East 25.3 mph 34.5 mph N/A   Overcast
1:55 PM 24.8 °F 10.0 °F 21.2 °F 86% 29.85 in 1.8 mi East 21.9 mph 27.6 mph N/A   Overcast
2:15 PM 24.8 °F 12.9 °F 21.2 °F 86% 29.84 in 2.0 mi East 13.8 mph 27.6 mph N/A   Overcast
2:35 PM 24.8 °F 11.9 °F 23.0 °F 93% 29.84 in 2.5 mi East 16.1 mph 23.0 mph N/A Snow Light Snow
2:55 PM 26.6 °F 15.2 °F 23.0 °F 86% 29.82 in 3.0 mi East 13.8 mph 26.5 mph N/A   Mist
3:15 PM 26.6 °F 14.3 °F 23.0 °F 86% 29.82 in 2.5 mi East 16.1 mph 28.8 mph N/A   Overcast
3:35 PM 26.6 °F 15.7 °F 23.0 °F 86% 29.82 in 2.0 mi East 12.7 mph 24.2 mph N/A   Overcast
4:15 PM 26.6 °F 14.3 °F 23.0 °F 86% 29.80 in 3.0 mi East 16.1 mph - N/A   Mist
5:15 PM 26.6 °F 16.8 °F 23.0 °F 86% 29.79 in 1.8 mi East 10.4 mph 16.1 mph N/A Snow Light Snow
5:35 PM 26.6 °F 17.5 °F 23.0 °F 86% 29.80 in 0.5 mi East 9.2 mph - N/A Snow Light Snow
5:55 PM 26.6 °F 20.0 °F 23.0 °F 86% 29.81 in 0.8 mi East 5.8 mph - N/A Snow Light Snow
6:15 PM 26.6 °F 18.2 °F 23.0 °F 86% 29.80 in 1.0 mi East 8.1 mph - N/A Snow Light Snow
6:35 PM 26.6 °F 18.2 °F 23.0 °F 86% 29.80 in 0.8 mi East 8.1 mph - N/A Snow Light Snow
6:55 PM 26.6 °F 21.2 °F 23.0 °F 86% 29.80 in 1.2 mi East 4.6 mph - N/A Snow Light Snow
7:15 PM 26.6 °F 20.0 °F 23.0 °F 86% 29.80 in 3.0 mi ENE 5.8 mph - N/A Snow Light Snow
7:35 PM 26.6 °F 20.0 °F 23.0 °F 86% 29.79 in 5.0 mi ENE 5.8 mph - N/A   Overcast
7:55 PM 26.6 °F 20.0 °F 24.8 °F 93% 29.79 in 1.8 mi NE 5.8 mph - N/A Snow Light Snow
8:15 PM 26.6 °F 20.0 °F 24.8 °F 93% 29.79 in 1.8 mi ENE 5.8 mph - N/A Snow Light Snow
8:35 PM 26.6 °F 21.2 °F 24.8 °F 93% 29.80 in 1.2 mi East 4.6 mph - N/A Snow Light Snow
8:55 PM 26.6 °F 21.2 °F 24.8 °F 93% 29.79 in 5.0 mi ENE 4.6 mph - N/A Snow Light Snow
9:15 PM 26.6 °F 21.2 °F 23.0 °F 86% 29.79 in 10.0 mi East 4.6 mph - N/A   Overcast
9:35 PM 26.6 °F 22.6 °F 23.0 °F 86% 29.78 in 10.0 mi ENE 3.5 mph - N/A   Overcast
9:55 PM 26.6 °F 22.6 °F 24.8 °F 93% 29.78 in 10.0 mi NE 3.5 mph - N/A   Overcast
10:15 PM 26.6 °F 22.6 °F 24.8 °F 93% 29.78 in 10.0 mi ENE 3.5 mph - N/A   Overcast
10:35 PM 26.6 °F - 24.8 °F 93% 29.78 in 10.0 mi Calm Calm - N/A   Overcast
10:55 PM 26.6 °F 22.6 °F 24.8 °F 93% 29.78 in 10.0 mi East 3.5 mph - N/A   Overcast
11:15 PM 26.6 °F - 24.8 °F 93% 29.77 in 3.0 mi Calm Calm - N/A Snow Light Snow
11:35 PM 26.6 °F - 24.8 °F 93% 29.78 in 1.5 mi Calm Calm - N/A Snow Light Snow
11:55 PM 26.6 °F - 24.8 °F 93% 29.78 in 7.0 mi Calm Calm - N/A   Overcast